This is the latest recevied weather packets stored in our database for station/object EA1HTW-13. If no packets are shown the sender has not sent any weather packets the latest 10 day(s).
| Time | Temp. | Humidity | Pressure | Rain* | Wind** | Luminosity | Snow |
|---|---|---|---|---|---|---|---|
| 1777481962 | 17.78° C | 66% | 1000.9 hPa | 0 mm | - | - | - |
| 1777481422 | 17.78° C | 65% | 1000.8 hPa | 0 mm | - | - | - |
| 1777480883 | 18.33° C | 64% | 1000.7 hPa | 0 mm | - | - | - |
| 1777480342 | 18.33° C | 63% | 1000.5 hPa | 0 mm | - | - | - |
| 1777479802 | 18.33° C | 64% | 1000.5 hPa | 0 mm | - | - | - |
| 1777479262 | 18.33° C | 63% | 1000.4 hPa | 0 mm | - | - | - |
| 1777478722 | 18.89° C | 62% | 1000.5 hPa | 0 mm | - | - | - |
| 1777478182 | 18.89° C | 63% | 1000.5 hPa | 0 mm | - | - | - |
| 1777477643 | 18.89° C | 61% | 1000.4 hPa | 0 mm | - | - | - |
| 1777477102 | 19.44° C | 62% | 1000.4 hPa | 0 mm | - | - | - |
| 1777476563 | 18.89° C | 62% | 1000.5 hPa | 0 mm | - | - | - |
| 1777476022 | 18.89° C | 63% | 1000.4 hPa | 0 mm | - | - | - |
| 1777475481 | 18.89° C | 64% | 1000.3 hPa | 0 mm | - | - | - |
| 1777474943 | 18.89° C | 63% | 1000.3 hPa | 0 mm | - | - | - |
| 1777474403 | 18.89° C | 62% | 1000.4 hPa | 0 mm | - | - | - |
| 1777473862 | 18.89° C | 62% | 1000.1 hPa | 0 mm | - | - | - |
| 1777473323 | 19.44° C | 62% | 1000.2 hPa | 0 mm | - | - | - |
| 1777472783 | 20° C | 61% | 1000 hPa | 0 mm | - | - | - |
| 1777472243 | 20° C | 60% | 1000.1 hPa | 0 mm | - | - | - |
| 1777471703 | 20.56° C | 61% | 999.9 hPa | 0 mm | - | - | - |
| 1777471162 | 20.56° C | 61% | 999.8 hPa | 0 mm | - | - | - |
| 1777470622 | 20° C | 62% | 999.8 hPa | 0 mm | - | - | - |
| 1777470083 | 19.44° C | 66% | 999.9 hPa | 0 mm | - | - | - |
| 1777469542 | 18.33° C | 65% | 999.8 hPa | 0 mm | - | - | - |
| 1777469003 | 18.33° C | 65% | 999.9 hPa | 0 mm | - | - | - |
* Rain latest hour (hover to see other rain measurements)
** Current wind speed in m/s (hover to see current wind gust speed)